TimePST,TemperatureF,Dew PointF,Humidity,Sea Level PressureIn,VisibilityMPH,Wind Direction,Wind SpeedMPH,Gust SpeedMPH,PrecipitationIn,Events,Conditions,WindDirDegrees,DateUTC
12:56 AM,-18.0,-23.1,78,30.49,10.0,South,4.6,-,N/A,,Clear,180,2013-12-08 08:56:00
1:56 AM,-22.0,-27.0,77,30.49,10.0,SSE,3.5,-,N/A,,Clear,160,2013-12-08 09:56:00
2:56 AM,-26.0,-31.0,77,30.51,10.0,SSE,3.5,-,N/A,,Clear,150,2013-12-08 10:56:00
3:56 AM,-20.0,-24.0,82,30.49,10.0,South,6.9,-,N/A,,Clear,180,2013-12-08 11:56:00
4:56 AM,-14.1,-18.0,82,30.51,10.0,SE,5.8,-,N/A,,Clear,130,2013-12-08 12:56:00
5:56 AM,-16.1,-20.0,82,30.56,10.0,SSE,6.9,-,N/A,,Clear,160,2013-12-08 13:56:00
6:56 AM,-15.0,-18.9,82,30.56,10.0,SE,6.9,-,N/A,,Clear,140,2013-12-08 14:56:00
7:56 AM,-14.1,-18.0,82,30.58,10.0,SSE,5.8,-,N/A,,Clear,150,2013-12-08 15:56:00
8:56 AM,-4.0,-9.0,79,30.55,10.0,SSE,4.6,-,N/A,,Mostly Cloudy,150,2013-12-08 16:56:00
9:56 AM,1.0,-6.0,72,30.56,10.0,East,5.8,-,N/A,,Scattered Clouds,80,2013-12-08 17:56:00
10:56 AM,5.0,-4.0,66,30.54,10.0,South,3.5,-,N/A,,Clear,170,2013-12-08 18:56:00
11:56 AM,10.0,-0.9,61,30.51,10.0,SSE,4.6,-,N/A,,Overcast,150,2013-12-08 19:56:00
12:56 PM,10.9,-0.9,59,30.48,10.0,SE,5.8,-,N/A,,Mostly Cloudy,140,2013-12-08 20:56:00
1:56 PM,15.1,3.0,59,30.48,10.0,NE,6.9,-,N/A,,Mostly Cloudy,50,2013-12-08 21:56:00
2:56 PM,16.0,1.0,52,30.52,10.0,Calm,Calm,-,N/A,,Clear,0,2013-12-08 22:56:00
3:56 PM,12.9,1.9,62,30.53,10.0,Calm,Calm,-,N/A,,Clear,0,2013-12-08 23:56:00
4:56 PM,3.0,-2.0,80,30.56,10.0,Calm,Calm,-,N/A,,Clear,0,2013-12-09 00:56:00
5:56 PM,-2.9,-7.1,82,30.61,10.0,WSW,3.5,-,N/A,,Clear,250,2013-12-09 01:56:00
6:56 PM,-6.0,-8.0,91,30.63,10.0,South,4.6,-,N/A,,Clear,180,2013-12-09 02:56:00
7:56 PM,-6.0,-9.9,83,30.66,10.0,SSE,4.6,-,N/A,,Clear,150,2013-12-09 03:56:00
8:56 PM,-6.0,-9.9,83,30.65,10.0,Calm,Calm,-,N/A,,Clear,0,2013-12-09 04:56:00
9:56 PM,-2.9,-7.1,82,30.58,10.0,SSE,3.5,-,N/A,,Clear,150,2013-12-09 05:56:00
10:56 PM,-9.9,-14.1,82,30.66,10.0,ESE,4.6,-,N/A,,Clear,120,2013-12-09 06:56:00
11:56 PM,-8.0,-11.9,83,30.66,10.0,South,4.6,-,N/A,,Clear,170,2013-12-09 07:56:00